Weather reports worldwide

Advertisment
Terschelling/Hoorn, Netherlands (6251): temperature & dewpoint: 28.05.2020 21:00:00 - 03.06.2020 21:00:00 (CEST)Terschelling/Hoorn, Netherlands (6251): temperature 5cm: 28.05.2020 21:00:00 - 03.06.2020 21:00:00 (CEST)Terschelling/Hoorn, Netherlands (6251): wind speed & gusts: 28.05.2020 21:00:00 - 03.06.2020 21:00:00 (CEST)Terschelling/Hoorn, Netherlands (6251): wind direction: 28.05.2020 21:00:00 - 03.06.2020 21:00:00 (CEST)Terschelling/Hoorn, Netherlands (6251): reduced air pressure: 28.05.2020 21:00:00 - 03.06.2020 21:00:00 (CEST)Terschelling/Hoorn, Netherlands (6251): visibility: 28.05.2020 21:00:00 - 03.06.2020 21:00:00 (CEST)Terschelling/Hoorn, Netherlands (6251): precipitation: 28.05.2020 21:00:00 - 03.06.2020 21:00:00 (CEST)
Date & Time tt [°C] td [°C] tt 5cm [°C] ff [km/h] ff [kn] fx [km/h] fx [kn] dd ppp [hPa] vv [km] rr [mm]
03.06.2020 21:00:00 13,5 11,5 13,4 25 14 40 21 N 1003,5 18 0,0
03.06.2020 20:00:00 13,9 11,5 14,0 25 14 40 21 N 1003,3 16 0,0
03.06.2020 19:00:00 15,4 12,2 15,7 25 14 40 21 N 1003,5 18 0,0
03.06.2020 18:00:00 16,0 12,1 18,1 25 14 36 19 N 1003,5 16 0,0
03.06.2020 17:00:00 15,8 12,1 17,3 25 14 40 21 N 1003,8 20 0,0
03.06.2020 16:00:00 16,5 12,3 18,4 29 16 40 21 NNE 1004,2 16 0,0
03.06.2020 15:00:00 17,3 12,7 19,0 32 18 47 25 NNE 1004,2 17 0,0
03.06.2020 14:00:00 17,8 12,5 19,3 32 18 47 25 NNE 1004,3 18 0,0
03.06.2020 13:00:00 17,5 12,4 20,0 36 19 50 27 NNE 1004,7 20 0,0
03.06.2020 12:00:00 17,5 12,6 20,2 32 18 43 23 NNE 1005,1 22 0,0
03.06.2020 11:00:00 16,9 12,8 18,3 29 16 43 23 NNE 1005,5 24 0,0
03.06.2020 10:00:00 16,5 12,6 17,4 25 14 36 19 NNE 1005,7 25 0,0
03.06.2020 09:00:00 16,0 12,0 17,1 25 14 36 19 NNE 1005,9 30 0,0
03.06.2020 08:00:00 15,8 11,7 15,5 22 12 36 19 NNE 1006,4 34 0,0
03.06.2020 07:00:00 15,4 11,2 15,1 22 12 29 16 NNE 1006,6 42 0,0
03.06.2020 06:00:00 14,8 11,6 13,9 18 10 29 16 NNE 1006,9 47 0,0
03.06.2020 05:00:00 14,0 11,9 13,4 18 10 29 16 N 1007,6 47 0,0
03.06.2020 04:00:00 14,4 11,5 13,5 18 10 25 14 N 1008,5 50 0,0
03.06.2020 03:00:00 14,5 11,5 13,8 18 10 29 16 N 1009,3 48 0,0
03.06.2020 02:00:00 14,3 12,1 13,5 22 12 29 16 N 1010,2 24 0,0
03.06.2020 01:00:00 14,4 12,3 13,8 18 10 25 14 N 1011,0 22 0,0
03.06.2020 00:00:00 14,5 12,1 13,8 14 8 22 12 NNE 1011,6 28 0,0
02.06.2020 23:00:00 14,5 12,0 14,0 14 8 22 12 N 1012,2 31 0,0
02.06.2020 22:00:00 14,8 12,1 14,2 14 8 22 12 NNE 1012,7 36 0,0
02.06.2020 21:00:00 15,9 12,7 15,7 11 6 18 10 NNE 1012,9 36 0,0
02.06.2020 20:00:00 17,5 12,7 17,8 14 8 22 12 NE 1013,2 35 0,0
02.06.2020 19:00:00 20,5 11,6 21,6 14 8 25 14 NE 1013,6 42 0,0
02.06.2020 18:00:00 21,0 11,8 22,3 18 10 25 14 NE 1014,4 35 0,0
02.06.2020 17:00:00 22,1 10,0 23,9 22 12 29 16 NE 1015,2 40 0,0
02.06.2020 16:00:00 21,5 12,8 23,9 18 10 29 16 NE 1015,9 34 0,0
02.06.2020 15:00:00 21,4 12,9 23,8 22 12 25 14 NNE 1016,6 36 0,0
02.06.2020 14:00:00 22,5 11,2 24,8 18 10 25 14 NNE 1017,2 35 0,0
02.06.2020 13:00:00 22,9 12,4 25,2 18 10 22 12 NNE 1017,8 27 0,0
02.06.2020 12:00:00 22,2 11,8 24,5 11 6 14 8 E 1018,4 29 0,0
02.06.2020 11:00:00 20,1 12,3 22,9 11 6 14 8 ESE 1018,9 14 0,0
02.06.2020 10:00:00 18,9 11,7 21,9 7 4 11 6 E 1019,4 24 0,0
02.06.2020 09:00:00 18,0 10,9 20,2 7 4 11 6 E 1019,8 36 0,0
02.06.2020 08:00:00 17,3 10,8 18,1 7 4 14 8 ESE 1020,1 31 0,0
02.06.2020 07:00:00 15,7 11,7 14,2 7 4 14 8 E 1020,1 36 0,0
02.06.2020 06:00:00 11,1 9,3 8,9 11 6 14 8 E 1020,5 37 0,0
02.06.2020 05:00:00 11,3 10,0 9,3 11 6 14 8 ENE 1020,6 37 0,0
02.06.2020 04:00:00 12,2 10,8 10,8 11 6 14 8 NE 1020,8 28 0,0
02.06.2020 03:00:00 12,6 11,2 11,4 14 8 22 12 ENE 1021,2 26 0,0
02.06.2020 02:00:00 13,3 11,2 12,3 18 10 25 14 ENE 1021,7 31 0,0
02.06.2020 01:00:00 13,6 11,0 12,5 18 10 25 14 ENE 1022,3 34 0,0
02.06.2020 00:00:00 13,9 11,1 12,8 18 10 29 16 ENE 1022,5 34 0,0
01.06.2020 23:00:00 14,0 10,9 13,0 22 12 29 16 NE 1022,6 30 0,0
01.06.2020 22:00:00 14,3 10,5 13,5 22 12 32 18 NE 1022,5 36 0,0
01.06.2020 21:00:00 15,1 10,2 14,6 22 12 36 19 NE 1022,4 38 0,0
01.06.2020 20:00:00 15,7 10,4 15,5 25 14 43 23 NE 1022,8 32 0,0
01.06.2020 19:00:00 17,1 10,1 18,2 29 16 43 23 NE 1023,2 30 0,0
01.06.2020 18:00:00 18,0 9,8 19,3 32 18 43 23 NE 1023,3 20 0,0
01.06.2020 17:00:00 17,5 9,6 18,3 32 18 43 23 NE 1023,6 11 0,0
01.06.2020 16:00:00 17,8 10,1 18,4 32 18 47 25 ENE 1023,9 38 0,0
01.06.2020 15:00:00 18,0 10,7 19,3 36 19 43 23 ENE 1024,3 25 0,0
01.06.2020 14:00:00 16,5 10,4 17,2 32 18 43 23 ENE 1024,8 25 0,0
01.06.2020 13:00:00 18,0 10,5 19,5 29 16 40 21 ENE 1025,0 34 0,0
01.06.2020 12:00:00 17,5 11,0 18,5 29 16 43 23 ENE 1025,4 16 0,0
01.06.2020 11:00:00 16,7 10,8 17,7 32 18 40 21 ENE 1025,6 30 0,0
01.06.2020 10:00:00 16,5 10,9 17,6 32 18 40 21 E 1025,6 31 0,0
01.06.2020 09:00:00 15,9 10,0 16,3 25 14 36 19 E 1025,8 43 0,0
01.06.2020 08:00:00 14,8 8,5 14,8 25 14 43 23 E 1025,7 36 0,0
01.06.2020 07:00:00 14,7 6,0 14,0 32 18 43 23 E 1025,5 45 0,0
01.06.2020 06:00:00 14,3 6,8 13,4 32 18 40 21 E 1025,4 46 0,0
01.06.2020 05:00:00 14,3 8,4 13,2 29 16 40 21 E 1025,4 48 0,0
01.06.2020 04:00:00 12,9 10,9 10,7 18 10 22 12 E 1025,3 38 0,0
01.06.2020 03:00:00 12,0 9,7 11,0 18 10 22 12 ENE 1025,3 46 0,0
01.06.2020 02:00:00 13,5 11,3 11,5 18 10 25 14 E 1025,4 45 0,0
01.06.2020 01:00:00 13,1 10,3 12,0 18 10 25 14 ENE 1025,1 31 0,0
01.06.2020 00:00:00 13,7 10,0 12,8 22 12 29 16 ENE 1025,1 36 0,0
31.05.2020 23:00:00 14,0 10,0 13,1 22 12 32 18 ENE 1025,0 38 0,0
31.05.2020 22:00:00 14,3 10,1 13,5 25 14 36 19 NE 1024,9 34 0,0
31.05.2020 21:00:00 14,2 10,3 13,7 25 14 40 21 NE 1024,9 33 0,0
31.05.2020 20:00:00 14,9 8,8 14,7 29 16 43 23 NE 1024,9 44 0,0
31.05.2020 19:00:00 15,8 8,7 16,2 32 18 47 25 NE 1025,1 39 0,0
31.05.2020 18:00:00 16,8 8,1 17,9 36 19 50 27 NE 1025,3 34 0,0
31.05.2020 17:00:00 17,5 8,5 17,9 32 18 43 23 NE 1025,6 34 0,0
31.05.2020 16:00:00 18,3 7,6 18,9 29 16 47 25 NE 1025,8 33 0,0
31.05.2020 15:00:00 18,2 7,5 20,2 32 18 43 23 NE 1025,9 35 0,0
31.05.2020 14:00:00 18,6 7,6 20,7 29 16 43 23 NE 1026,1 31 0,0
31.05.2020 13:00:00 19,0 8,5 21,1 29 16 40 21 ENE 1026,3 38 0,0
31.05.2020 12:00:00 19,0 6,6 20,6 32 18 40 21 E 1026,3 36 0,0
31.05.2020 11:00:00 17,9 9,2 19,7 18 10 25 14 E 1026,6 38 0,0
31.05.2020 10:00:00 16,6 8,7 18,3 18 10 25 14 E 1026,5 42 0,0
31.05.2020 09:00:00 15,7 8,7 17,4 14 8 22 12 E 1026,3 39 0,0
31.05.2020 08:00:00 15,6 9,7 16,0 14 8 22 12 E 1026,0 38 0,0
31.05.2020 07:00:00 14,4 9,0 13,8 18 10 25 14 ESE 1025,7 41 0,0
31.05.2020 06:00:00 13,8 9,2 12,7 22 12 29 16 ESE 1025,5 45 0,0
31.05.2020 05:00:00 10,0 9,4 8,5 14 8 14 8 ENE 1025,2 14 0,0
31.05.2020 04:00:00 10,4 9,4 9,3 14 8 18 10 ENE 1025,3 19 0,0
31.05.2020 03:00:00 11,1 9,5 9,7 14 8 18 10 ENE 1025,2 24 0,0
31.05.2020 02:00:00 9,8 7,7 7,8 11 6 18 10 ENE 1025,3 28 0,0
31.05.2020 01:00:00 10,3 7,3 8,8 14 8 18 10 ENE 1025,4 39 0,0
31.05.2020 00:00:00 11,8 7,4 10,6 18 10 29 16 ENE 1025,2 44 0,0
30.05.2020 23:00:00 12,0 8,8 10,5 14 8 25 14 ENE 1025,4 29 0,0
30.05.2020 22:00:00 12,8 9,5 12,0 18 10 29 16 NE 1025,2 24 0,0
30.05.2020 21:00:00 13,9 9,5 13,4 22 12 32 18 NE 1024,7 25 0,0
30.05.2020 20:00:00 14,8 9,8 15,1 25 14 36 19 NE 1024,9 30 0,0
30.05.2020 19:00:00 15,7 9,3 16,7 25 14 36 19 NE 1025,0 28 0,0
30.05.2020 18:00:00 16,9 9,6 18,5 25 14 40 21 NE 1025,4 32 0,0
30.05.2020 17:00:00 16,9 8,9 19,3 29 16 40 21 NE 1025,8 23 0,0
30.05.2020 16:00:00 18,0 7,7 20,1 32 18 40 21 ENE 1025,9 21 0,0
30.05.2020 15:00:00 19,0 7,7 21,4 32 18 40 21 ENE 1026,0 34 0,0
30.05.2020 14:00:00 19,9 6,6 22,1 25 14 36 19 ENE 1026,5 22 0,0
30.05.2020 13:00:00 19,8 9,7 22,0 25 14 36 19 ENE 1026,5 29 0,0
30.05.2020 12:00:00 18,8 12,0 21,4 25 14 32 18 ENE 1026,8 21 0,0
30.05.2020 11:00:00 18,3 12,7 20,3 18 10 29 16 E 1027,0 21 0,0
30.05.2020 10:00:00 17,2 12,2 19,2 18 10 25 14 E 1027,0 23 0,0
30.05.2020 09:00:00 16,0 11,4 17,4 18 10 25 14 ENE 1026,9 28 0,0
30.05.2020 08:00:00 14,2 11,9 15,0 18 10 25 14 ENE 1026,9 21 0,0
30.05.2020 07:00:00 12,5 11,2 12,1 14 8 22 12 ENE 1026,8 16 0,0
30.05.2020 06:00:00 10,7 9,8 9,5 14 8 22 12 ENE 1026,9 16 0,0
30.05.2020 05:00:00 10,4 9,2 9,0 14 8 22 12 NE 1027,2 16 0,0
30.05.2020 04:00:00 9,9 8,6 8,4 14 8 22 12 ENE 1027,5 20 0,0
30.05.2020 03:00:00 9,7 8,1 8,1 14 8 22 12 ENE 1027,7 23 0,0
30.05.2020 02:00:00 9,8 7,7 8,4 18 10 22 12 ENE 1027,6 25 0,0
30.05.2020 01:00:00 10,0 7,3 8,5 18 10 25 14 ENE 1027,6 29 0,0
30.05.2020 00:00:00 10,1 7,0 8,9 18 10 25 14 ENE 1027,7 26 0,0
29.05.2020 23:00:00 10,6 6,7 9,5 22 12 29 16 ENE 1027,6 34 0,0
29.05.2020 22:00:00 11,3 7,6 10,4 25 14 32 18 ENE 1027,6 29 0,0
29.05.2020 21:00:00 12,0 7,5 11,6 22 12 36 19 ENE 1027,6 31 0,0
29.05.2020 20:00:00 13,3 7,8 13,5 22 12 36 19 ENE 1027,8 31 0,0
29.05.2020 19:00:00 13,6 7,1 14,6 29 16 36 19 ENE 1028,2 29 0,0
29.05.2020 18:00:00 14,1 8,0 16,0 25 14 36 19 NE 1028,5 25 0,0
29.05.2020 17:00:00 14,6 8,9 17,0 25 14 36 19 NE 1029,0 24 0,0
29.05.2020 16:00:00 14,7 8,4 17,6 25 14 36 19 NNE 1029,4 28 0,0
29.05.2020 15:00:00 14,7 8,1 17,6 25 14 32 18 NE 1030,0 22 0,0
29.05.2020 14:00:00 15,2 9,6 18,1 22 12 32 18 NE 1030,6 32 0,0
29.05.2020 13:00:00 15,4 9,8 18,6 18 10 29 16 NE 1031,0 25 0,0
29.05.2020 12:00:00 14,9 9,5 17,7 18 10 29 16 NE 1031,5 24 0,0
29.05.2020 11:00:00 14,4 8,7 16,8 18 10 29 16 NE 1031,7 29 0,0
29.05.2020 10:00:00 13,7 8,2 16,4 18 10 25 14 E 1031,7 28 0,0
29.05.2020 09:00:00 13,0 8,2 15,1 14 8 22 12 E 1031,9 28 0,0
29.05.2020 08:00:00 12,2 8,4 13,2 14 8 18 10 ENE 1032,1 29 0,0
29.05.2020 07:00:00 10,1 7,9 9,2 11 6 11 6 ENE 1032,0 28 0,0
29.05.2020 06:00:00 6,8 5,1 3,8 11 6 14 8 ENE 1032,2 27 0,0
29.05.2020 05:00:00 7,1 5,5 4,1 14 8 14 8 ENE 1032,2 28 0,0
29.05.2020 04:00:00 6,5 4,9 3,4 11 6 14 8 ENE 1032,3 26 0,0
29.05.2020 03:00:00 6,3 5,0 0,1 11 6 14 8 ENE 1032,6 25 0,0
29.05.2020 02:00:00 6,2 4,8 0,3 7 4 14 8 NE 1032,8 26 0,0
29.05.2020 01:00:00 6,4 4,7 0,7 7 4 11 6 NE 1033,0 18 0,0
29.05.2020 00:00:00 6,6 4,7 1,7 7 4 11 6 NE 1033,2 29 0,0
28.05.2020 23:00:00 7,6 5,3 4,0 7 4 14 8 NE 1033,3 30 0,0
28.05.2020 22:00:00 8,6 5,4 6,8 14 8 18 10 NE 1033,6 32 0,0
28.05.2020 21:00:00 11,2 6,3 10,6 14 8 25 14 NE 1033,3 30 0,0

tt = temperature
td = dewpoint
tt 5cm = temperature 5cm
ff = wind speed
fx = gusts
dd = wind direction
ppp = reduced air pressure
vv = visibility
rr = precipitation

Next stations